[Iaude] MPEC F107: 2024 FE3 [a=1.07,e=0.39,i=18.7,H=22.4]
    mpec at cfa.harvard.edu 
    mpec at cfa.harvard.edu
       
    Sat Mar 30 13:45:51 EDT 2024
    
    
  
M.P.E.C. 2024-F107                               Issued 2024 March 30, 17:44 UT
     The Minor Planet Electronic Circulars contain information on unusual
         minor planets, routine data on comets and natural satellites,
         and occasional editorial announcements.  They are published
    on behalf of Division F of the International Astronomical Union by the
          Minor Planet Center, Smithsonian Astrophysical Observatory,
                          Cambridge, MA 02138, U.S.A.
			  
             Prepared using the Tamkin Foundation Computer Network
                              MPC at CFA.HARVARD.EDU
            URL https://www.minorplanetcenter.net/    ISSN 1523-6714
                                    2024 FE3                                    
Observations:
     K24F03E* C2024 03 18.58458114 51 22.367+04 13 48.44         22.31wXEF107F51
     K24F03E  C2024 03 18.59605414 51 23.162+04 14 27.83         22.19wXEF107F51
     K24F03E  C2024 03 18.60752214 51 23.946+04 15 07.17         22.02wXEF107F51
     K24F03E 1C2024 03 19.57562914 52 39.617+05 11 47.73         21.92GVEF107T12
     K24F03E 1C2024 03 19.57944914 52 39.870+05 12 01.32         21.71GVEF107T12
     K24F03E KC2024 03 22.49103014 56 22.819+08 16 15.75         21.5 GVEF107H01
     K24F03E KC2024 03 22.50172914 56 23.550+08 16 58.85         21.3 GVEF107H01
     K24F03E KC2024 03 22.50779314 56 23.958+08 17 23.03         21.3 GVEF107H01
     K24F03E  C2024 03 30.26412215 06 00.321+18 18 13.64         21.0 GVEF107H01
     K24F03E  C2024 03 30.26875415 06 00.633+18 18 38.49         21.1 GVEF107H01
     K24F03E KC2024 03 30.27914915 06 01.316+18 19 33.87         21.8 GVEF107H01
     K24F03E KC2024 03 30.40735215 06 09.425+18 30 55.58         21.31GVEF107I52
     K24F03E KC2024 03 30.41185815 06 09.731+18 31 19.70         22.10GVEF107I52
     K24F03E KC2024 03 30.41635915 06 09.986+18 31 43.28         21.03GVEF107I52
Observer details:
F51 Pan-STARRS 1, Haleakala.  Observers J. Herman, T. Lowe, P. Minguez, A.
    Schultz, I. Smith.  Measurers K. Chambers, T. de Boer, J. Fairlamb, H.
    Gao, M. Huber, C.-C. Lin, E. Magnier, Y. Ramanjooloo, R. Wainscoat, R.
    Weryk.  1.8-m Ritchey-Chretien + CCD.
H01 Magdalena Ridge Observatory, Socorro.  Observers W. H. Ryan, E. V. Ryan.
    Measurer W. H. Ryan.  2.4-m f/8.9 Ritchey-Chretien + CCD.
I52 Steward Observatory, Mt. Lemmon Station.  Observers T. Beuden, H.
    Groeller.  Measurers T. Beuden, V. F. Carvajal, D. Fay, J. B. Fazekas, D.
    C. Fuls, A. R. Gibbs, A. D. Grauer, H. Groeller, J. K. Hogan, R. A.
    Kowalski, S. M. Larson, G. J. Leonard, D. Rankin, R. L. Seaman, F. C.
    Shelly, K. W. Wierzchos.  1.0-m prime focus + CCD.
T12 University of Hawaii 88-inch telescope, Maunakea.  Observer J. Fairlamb.
    Measurers R. Weryk, J. Fairlamb, Y. Ramanjooloo, R. Wainscoat.  2.24-m
    f/10.1 reflector + CCD.
Orbital elements:
2024 FE3                                                 Earth MOID = 0.2378 AU
Epoch 2024 Mar. 31.0 TT = JDT 2460400.5                 Bell                    
M 268.40051              (2000.0)            P               Q                  
n   0.89257110     Peri.  156.67317     +0.85441980     +0.51750784             
a   1.0683351      Node   171.69012     -0.51278501     +0.85426919             
e   0.3857661      Incl.   18.72395     -0.08377549     +0.04908965             
P   1.10           H   22.40          G   0.15           U   7                  
Residuals in seconds of arc
240318 F51  0.0   0.0     240322 H01  0.0   0.1-    240330 H01  0.1+  0.2+
240318 F51  0.0   0.0     240322 H01  0.0   0.1+    240330 I52  0.2-  0.2-
240318 F51  0.1-  0.1-    240322 H01  0.0   0.1-    240330 I52  0.3+  0.0
240319 T12  0.1+  0.2+    240330 H01  0.2-  0.1-    240330 I52  0.0   0.3-
240319 T12  0.0   0.1+    240330 H01  0.0   0.1+
Ephemeris:
2024 FE3                 a,e,i = 1.07, 0.39, 19                  q = 0.6562
Date    TT    R. A. (2000) Decl.     Delta      r    Elong.  Phase     V
2024 02 29    14 25 09.1 -07 55 14   0.5382  1.3594   122.8    37.8    23.2
...
2024 03 15    14 46 38.0 +01 03 02   0.3974  1.2998   133.4    33.8    22.4
...
2024 03 23    14 57 01.9 +08 50 50   0.3356  1.2632   137.1    32.5    21.9
...
2024 03 29    15 04 27.0 +16 29 13   0.2976  1.2336   137.2    33.3    21.6
2024 03 30    15 05 39.7 +17 55 11   0.2921  1.2284   137.0    33.7    21.6
2024 03 31    15 06 52.2 +19 23 51   0.2869  1.2233   136.6    34.2    21.5
...
2024 04 06    15 14 04.6 +29 09 04   0.2608  1.1912   132.0    38.6    21.4
...
2024 04 14    15 24 11.0 +43 49 17   0.2417  1.1457   120.8    48.8    21.4
...
2024 04 29    15 57 25.5 +70 24 24   0.2483  1.0525    93.7    72.7    22.0
M. P. C. Staff               (C) Copyright 2024 MPC           M.P.E.C. 2024-F107
    
    
More information about the Iaude
mailing list